Temperature
20 21 22 22 22 20 20 19 19 20 19 20 19 19 19 19 20 20 20 20 20 20 20 20 20 20 20 19 19 19 19 18 18 18 18 17 17 17 17 16 16 16 16 16
21 22 22 22 22 21 21 20 20 20 19 19 19 19 19 19 19 19 20 20 20 20 20 20 20 20 19 19 19 18 18 18 18 17 17 17 17 17 16 16 16 16 15 15
20 21 22 21 21 21 21 20 20 20 20 18 18 18 18 19 19 19 19 20 20 20 20 19 19 19 19 18 18 18 18 17 17 17 17 16 16 16 16 16 16 15 15 15
18 20 21 21 21 21 21 20 20 20 19 19 19 19 19 19 19 19 19 19 19 19 19 19 18 18 18 18 18 17 17 17 17 16 16 16 16 16 16 15 15 15 15 15
16 19 20 21 21 20 20 20 20 19 18 18 19 18 18 19 19 19 19 19 19 19 19 18 18 18 17 17 17 17 17 17 16 16 16 16 16 15 15 15 15 15 15 15
16 19 20 21 21 21 21 20 20 19 18 18 18 17 18 19 19 19 19 19 19 18 18 18 17 17 17 17 17 17 16 16 16 16 16 15 15 15 15 15 14 14 14 14
17 19 19 20 20 21 21 20 20 20 19 19 18 18 19 19 19 19 19 18 18 18 18 17 17 17 16 16 16 16 16 16 15 15 15 15 15 15 14 14 14 14 14 14
16 18 19 19 19 20 20 21 21 20 20 19 19 19 19 18 18 18 18 18 18 18 17 17 16 16 16 16 16 15 15 15 15 15 15 14 14 14 14 14 14 14 14 13
16 17 17 18 19 20 21 21 21 21 20 20 19 19 18 18 18 18 18 17 17 17 17 16 16 16 16 15 15 15 15 15 15 14 14 14 14 14 13 13 13 13 13 13
15 16 17 18 19 20 21 21 21 21 20 20 19 19 18 18 18 18 17 17 17 16 16 16 16 15 15 15 15 15 14 14 14 14 14 13 13 13 13 13 13 12 12 12
15 16 17 18 19 20 20 21 21 20 20 20 20 19 18 18 17 17 17 16 16 16 16 15 15 15 15 14 14 14 14 14 14 13 13 13 13 13 13 12 12 12 12 12
16 16 16 18 19 20 20 20 20 20 19 19 19 19 18 17 17 17 16 16 16 15 15 15 15 14 14 14 14 14 14 13 13 13 13 12 12 12 12 12 12 12 11 11
18 18 18 18 18 19 19 19 19 19 19 18 18 18 18 17 16 16 16 15 15 15 15 14 14 14 14 14 13 13 13 13 13 12 12 12 12 12 12 12 12 12 11 11
18 18 17 18 18 18 19 18 18 18 18 18 17 17 17 16 16 16 15 15 15 14 14 14 14 14 13 13 13 13 13 12 12 12 12 12 12 12 11 11 11 11 11 11
18 18 18 18 18 18 18 18 18 17 17 17 17 16 16 16 16 15 15 14 14 14 14 13 13 13 13 13 12 12 12 12 12 12 12 11 11 11 11 11 11 11 11 11
17 18 17 17 17 17 17 17 17 17 16 16 16 16 16 15 15 14 14 14 13 13 13 13 13 12 12 12 12 12 12 12 11 11 11 11 11 11 11 11 10 10 10 10
17 16 17 17 17 17 17 17 17 16 16 16 16 15 15 15 14 14 14 13 13 13 13 12 12 12 12 12 11 11 11 11 11 11 11 11 10 10 10 10 10 10 10 10
17 17 17 17 17 17 16 16 16 16 16 16 15 15 14 14 14 14 13 13 13 12 12 12 12 12 11 11 11 11 11 11 11 10 10 10 10 10 10 10 10 10 10 10
16 17 17 17 17 16 16 16 16 15 15 15 15 14 14 14 14 13 13 12 12 12 12 12 12 11 11 11 11 11 11 10 10 10 10 10 10 10 9 9 9 9 9 9
16 16 16 16 16 16 16 16 15 15 15 15 14 14 14 14 13 13 13 12 12 12 12 12 11 11 11 11 11 10 10 10 10 10 10 9 9 9 9 9 9 9 9 9
15 16 16 16 15 15 15 15 15 15 15 14 14 14 13 13 13 13 12 12 12 12 11 11 11 11 11 10 10 10 10 10 10 9 9 9 9 9 9 9 8 8 8 8
15 15 15 15 15 15 15 15 15 15 14 14 14 13 13 13 12 12 12 12 12 11 11 11 11 11 10 10 10 10 10 10 10 9 9 9 9 9 8 8 8 8 8 8
15 15 15 15 15 15 15 14 14 14 14 14 13 13 13 12 12 12 12 12 11 11 11 11 10 10 10 10 10 10 10 9 9 9 9 8 8 8 8 8 8 8 8 8
14 14 15 14 14 14 14 14 14 14 13 13 13 13 12 12 12 12 12 11 11 11 11 11 10 10 10 10 10 10 9 9 9 9 8 8 8 8 8 8 8 7 7 7
14 14 14 14 14 14 14 13 13 13 13 13 12 12 12 12 12 11 11 11 11 11 11 10 10 10 10 10 9 9 9 9 9 8 8 8 8 8 8 7 7 7 7 7
13 13 14 13 13 13 13 13 13 13 13 12 12 12 12 11 11 11 11 11 11 11 10 10 10 10 10 10 9 9 9 9 8 8 8 8 8 8 7 7 7 7 7 7
13 13 13 13 13 13 13 13 12 12 12 12 12 11 11 11 11 11 11 11 10 10 10 10 10 10 10 9 9 9 9 8 8 8 8 8 7 7 7 7 7 7 7 7
Wind_Speed
3 3 4 3 4 6 5 7 7 7 6 7 5 4 4 4 4 4 3 3 3 2 1 1 2 1 1 1 1 1 1 1 1 2 1 1 0 1 1 1 2 2 1 1
2 1 1 1 2 4 3 4 4 2 5 5 2 2 3 4 5 4 4 3 2 2 2 2 1 1 2 2 2 2 2 1 1 1 1 1 1 0 1 1 1 1 1 1
1 2 2 2 4 5 4 4 6 6 6 3 3 3 5 5 5 4 4 3 3 3 2 2 1 1 1 1 2 2 2 1 1 1 1 0 0 1 0 0 0 0 1 1
3 3 3 7 3 4 4 3 4 4 4 6 5 3 2 3 5 4 3 3 2 2 2 2 2 1 2 2 3 2 2 1 1 1 1 0 1 0 0 0 0 0 1 1
4 3 4 5 3 4 4 4 4 5 5 5 5 4 2 1 3 4 4 3 3 3 3 2 2 2 3 3 3 3 2 1 0 0 0 1 0 1 1 1 0 1 1 1
5 4 6 7 3 3 5 4 5 7 8 7 6 3 3 1 3 5 5 4 4 4 4 3 2 2 3 2 2 2 1 1 1 0 0 1 1 1 1 1 1 1 1 1
4 4 7 5 2 5 4 8 4 7 8 9 6 4 4 4 4 5 5 4 4 5 4 2 2 3 3 2 1 2 2 2 2 1 0 0 0 0 1 0 0 0 1 2
5 4 7 2 4 6 7 2 4 6 7 7 5 6 6 6 5 5 5 4 4 5 4 3 2 3 2 1 2 2 2 2 2 2 1 1 0 0 0 1 1 1 1 2
7 6 4 3 5 4 3 3 3 6 6 7 7 6 6 5 5 4 4 4 3 4 3 2 2 2 2 1 1 2 2 2 2 3 2 2 1 0 0 0 1 1 1 2
1 4 4 3 2 1 2 2 3 7 8 8 7 7 6 5 4 4 3 3 3 4 3 1 1 2 1 1 1 2 2 2 2 2 2 2 1 0 0 1 1 2 2 2
2 3 3 4 2 0 3 5 7 6 6 7 8 7 6 5 4 3 3 3 3 3 2 1 1 2 2 1 2 2 1 2 2 2 1 2 2 1 1 2 3 3 3 2
5 6 4 4 2 1 4 5 6 7 6 5 7 7 6 5 4 4 3 3 3 2 1 1 1 1 2 1 1 1 1 1 1 1 1 1 1 2 2 2 3 3 4 3
5 3 3 2 1 2 4 5 6 7 7 6 4 5 6 5 4 4 3 3 3 2 1 0 1 1 2 2 1 0 1 1 1 1 1 1 1 1 3 3 3 2 3 4
3 4 2 2 2 3 6 7 7 7 6 6 6 6 6 5 4 4 3 2 2 2 1 1 1 2 2 1 1 1 1 1 1 1 2 1 1 1 2 2 3 3 3 3
1 3 4 4 5 5 5 6 7 6 5 5 5 6 6 6 4 3 2 2 3 2 1 1 1 2 2 1 1 1 1 1 1 1 1 1 1 1 2 2 2 3 3 3
2 4 6 6 6 6 6 6 6 5 5 4 5 4 4 4 4 2 2 2 3 1 1 0 2 3 2 1 1 1 1 2 1 1 1 1 1 1 2 2 2 3 3 3
5 4 6 6 6 5 4 5 6 6 5 5 4 4 4 4 3 2 1 1 2 2 2 1 2 2 2 2 2 1 2 2 2 1 1 1 1 2 2 2 3 3 3 3
4 6 7 8 8 6 5 4 5 5 5 5 5 4 4 4 3 2 2 1 1 1 1 2 2 2 2 2 2 1 1 1 1 1 1 2 2 2 2 2 3 3 3 3
3 4 5 6 6 6 5 4 4 4 4 5 6 5 4 4 3 2 2 2 1 1 3 3 2 1 2 2 1 1 0 1 1 1 2 2 2 2 2 2 3 3 3 3
2 3 4 4 3 4 4 4 4 4 4 5 5 4 3 3 3 3 2 2 2 3 2 1 1 1 2 2 1 1 1 1 1 1 2 2 2 2 3 3 3 3 3 3
2 3 4 4 3 3 3 4 5 5 4 4 5 5 4 3 2 3 3 1 3 2 1 1 1 1 2 2 1 1 1 1 1 1 2 2 2 2 3 3 3 3 3 3
2 3 3 4 4 2 2 3 4 5 5 4 4 4 4 3 2 1 2 3 3 2 1 1 1 2 2 1 0 1 1 1 1 1 2 2 2 2 3 3 3 3 3 3
2 2 3 3 3 3 3 3 4 5 5 5 4 4 4 3 3 3 2 3 2 2 1 2 2 3 2 1 1 1 1 1 1 1 2 2 2 2 3 3 3 3 3 3
2 3 3 4 4 4 3 2 2 3 3 3 3 4 4 3 1 2 2 2 2 2 2 3 3 3 2 1 1 1 1 1 1 1 1 2 2 2 2 3 3 3 3 3
3 3 4 4 4 3 2 2 3 3 3 2 1 1 2 3 3 2 2 2 2 2 1 2 3 3 1 1 1 1 1 1 1 1 1 2 2 2 2 2 3 3 3 3
2 2 2 3 3 3 3 3 2 2 2 1 0 0 1 1 1 1 1 1 1 1 1 1 1 1 1 1 1 1 1 1 1 1 2 2 2 2 2 2 3 2 2 3
2 2 2 2 1 2 2 3 3 2 2 2 2 1 1 1 1 1 1 1 1 1 1 1 1 1 1 1 2 2 1 1 2 2 2 2 2 2 2 2 2 2 2 3
Wind_Direction
212 213 178 182 184 168 170 177 182 221 220 242 222 200 181 156 143 129 120 117 119 121 112 74 64 55 60 47 42 83 115 138 223 247 235 195 205 181 164 181 209 210 206 225
19 2 179 144 183 177 181 176 199 194 246 257 196 145 149 151 153 155 153 149 143 128 111 98 85 71 69 58 46 76 90 76 358 30 62 76 62 86 142 141 201 194 215 235
208 316 59 259 223 193 198 197 173 196 226 181 145 168 173 165 162 171 169 158 147 143 137 135 132 121 112 96 81 75 70 53 44 60 75 82 109 79 114 200 112 341 264 251
128 94 210 247 252 180 178 226 207 211 206 176 169 144 139 153 158 167 161 149 143 133 118 107 89 78 88 85 80 74 66 61 67 103 128 139 130 169 238 119 172 262 294 279
128 166 265 285 236 169 162 252 216 190 173 142 113 75 32 102 138 152 148 142 138 125 115 104 99 106 94 76 77 77 62 30 341 143 195 189 193 241 217 177 207 283 293 285
129 152 218 241 234 161 112 279 226 177 166 153 130 138 231 138 101 104 102 105 103 92 89 90 84 96 92 73 60 44 3 334 334 356 201 227 230 228 222 193 229 266 291 287
149 191 250 248 226 131 163 239 206 171 168 163 171 184 161 130 109 110 111 105 99 96 96 96 96 100 92 64 8 331 349 12 18 30 14 238 224 228 183 171 182 287 301 305
148 175 245 255 142 178 214 237 157 163 162 152 135 122 127 126 119 114 109 103 101 99 89 78 91 105 90 31 333 353 15 29 26 21 7 12 57 348 131 161 183 262 299 313
186 210 251 240 224 239 181 172 174 159 150 138 134 136 134 130 126 122 118 114 104 105 98 68 75 106 93 338 359 33 34 28 23 18 14 8 351 307 333 188 216 258 257 277
257 284 293 286 275 290 174 179 160 147 141 139 139 142 136 135 131 123 111 108 105 102 94 56 19 43 51 353 37 59 45 23 16 19 4 1 354 327 226 235 238 248 252 265
262 285 335 327 316 11 85 96 106 112 121 134 134 136 138 141 142 136 120 110 110 114 118 113 30 17 13 22 60 58 35 13 8 2 352 345 333 298 257 247 233 236 247 246
221 219 192 238 271 111 106 104 116 115 113 126 136 141 138 140 141 138 131 120 113 111 109 60 52 12 356 7 65 99 28 338 334 329 333 332 333 342 337 280 282 261 247 240
221 199 185 204 143 106 112 113 114 116 127 129 126 133 136 133 132 126 123 120 130 133 125 56 42 2 339 342 352 355 275 290 304 305 302 302 306 317 325 337 339 314 282 267
180 131 124 169 155 109 106 104 97 92 99 116 119 120 123 120 120 123 140 159 141 123 100 64 30 339 323 336 353 341 309 293 288 286 289 283 281 289 288 301 320 326 323 303
207 166 168 146 112 102 105 106 104 102 100 100 113 124 131 133 137 144 144 127 113 104 87 57 4 316 321 322 330 321 305 297 296 297 297 294 305 305 294 290 294 307 321 329
122 111 125 126 126 125 125 127 131 135 132 126 126 130 134 133 129 120 114 125 130 149 195 234 283 298 313 305 304 308 294 296 308 304 307 306 305 298 292 289 289 295 295 301
151 160 156 149 150 151 157 161 156 154 151 147 148 138 122 113 109 111 126 150 162 183 203 219 272 307 322 310 296 297 302 302 317 317 290 279 281 280 280 283 280 278 281 281
187 180 172 167 166 164 168 162 152 154 164 161 144 135 139 150 170 189 185 152 107 39 316 283 281 318 316 299 293 290 288 295 309 296 288 283 286 284 286 294 293 288 294 302
157 157 158 164 168 166 167 165 161 158 154 151 151 162 171 178 182 177 154 135 143 261 291 291 286 296 293 294 308 278 287 307 312 309 306 303 305 302 295 293 296 303 303 303
144 142 149 153 154 156 166 166 156 153 157 154 151 153 163 181 174 163 153 173 224 239 257 273 283 290 287 288 308 279 276 272 283 304 323 330 317 310 305 297 299 306 310 308
153 156 148 147 151 153 164 160 154 157 155 150 157 170 179 184 172 158 152 213 267 256 253 236 245 269 277 281 290 281 275 278 284 294 305 309 313 314 313 307 305 307 309 307
135 142 142 139 137 136 141 148 152 151 145 145 151 153 148 152 158 159 212 228 246 239 243 259 263 262 265 253 253 276 295 297 298 300 299 299 302 305 307 309 306 308 308 304
137 138 135 137 139 134 115 122 140 148 153 160 161 163 169 179 181 181 243 258 248 231 230 249 254 254 251 230 248 253 265 278 283 288 293 293 293 293 294 299 304 308 310 311
135 127 123 118 112 109 111 115 122 138 146 150 163 173 169 165 210 231 226 230 228 228 239 252 254 258 239 230 240 255 265 271 279 287 292 295 298 299 299 301 303 306 310 314
126 125 119 120 124 135 146 131 110 114 124 135 156 172 182 186 198 224 230 234 227 222 264 276 265 256 234 223 215 223 237 256 264 270 283 292 296 297 298 299 298 301 305 305
119 132 145 160 161 159 155 143 141 150 151 154 191 194 172 169 171 191 229 245 244 231 250 279 272 226 212 206 209 219 228 245 256 266 272 277 285 285 288 293 298 301 303 301
80 92 96 83 90 146 153 155 164 182 183 179 204 233 208 193 180 195 224 248 261 263 276 285 268 231 225 220 224 228 233 239 244 253 263 266 267 272 279 284 292 301 306 309
Height
1492 1489 1489 1490 1491 1495 1498 1503 1509 1504 1502 1495 1491 1490 1491 1492 1494 1495 1496 1496 1497 1498 1500 1501 1502 1502 1502 1502 1502 1503 1503 1503 1503 1503 1503 1503 1503 1502 1503 1503 1503 1503 1503 1503
1493 1488 1488 1490 1489 1491 1493 1496 1498 1498 1498 1489 1489 1490 1490 1491 1493 1494 1495 1496 1497 1498 1499 1501 1501 1502 1501 1502 1502 1502 1501 1501 1502 1501 1501 1501 1500 1500 1500 1500 1500 1501 1501 1501
1503 1494 1491 1499 1490 1490 1490 1489 1492 1496 1491 1487 1488 1489 1489 1490 1492 1494 1495 1496 1497 1498 1499 1500 1501 1501 1501 1501 1501 1501 1501 1500 1500 1500 1500 1499 1499 1499 1498 1498 1499 1499 1499 1499
1505 1501 1510 1496 1482 1482 1485 1485 1485 1485 1484 1484 1485 1488 1489 1490 1491 1493 1495 1496 1497 1498 1499 1500 1501 1501 1501 1501 1500 1500 1499 1499 1499 1498 1498 1497 1497 1497 1497 1497 1497 1497 1497 1497
1509 1509 1503 1489 1481 1481 1485 1486 1481 1482 1482 1484 1486 1488 1490 1490 1491 1492 1494 1495 1497 1498 1498 1499 1500 1500 1500 1500 1499 1498 1498 1497 1497 1496 1496 1495 1495 1495 1495 1495 1495 1495 1495 1494
1506 1507 1508 1490 1477 1476 1481 1488 1478 1479 1481 1483 1485 1492 1491 1490 1490 1492 1494 1495 1496 1497 1498 1499 1500 1500 1499 1499 1498 1497 1496 1496 1495 1495 1495 1494 1493 1493 1493 1493 1493 1493 1493 1492
1502 1502 1495 1479 1475 1477 1492 1487 1474 1476 1478 1480 1483 1486 1487 1489 1490 1491 1493 1494 1496 1497 1497 1498 1498 1498 1498 1498 1497 1496 1496 1495 1494 1494 1493 1492 1492 1491 1491 1490 1490 1490 1490 1489
1501 1501 1495 1474 1475 1478 1477 1471 1472 1474 1476 1479 1482 1484 1486 1488 1490 1491 1492 1494 1495 1495 1496 1497 1497 1497 1497 1496 1496 1495 1494 1493 1493 1492 1492 1491 1490 1489 1489 1488 1488 1487 1487 1487
1487 1486 1475 1472 1471 1471 1470 1471 1471 1473 1476 1479 1482 1484 1486 1488 1490 1492 1492 1494 1495 1495 1495 1496 1496 1496 1495 1495 1494 1494 1493 1492 1491 1491 1490 1489 1488 1487 1487 1486 1486 1485 1484 1483
1481 1476 1473 1471 1470 1470 1470 1470 1471 1473 1476 1479 1482 1484 1486 1488 1490 1491 1492 1493 1494 1495 1495 1495 1495 1495 1494 1494 1494 1493 1492 1491 1490 1490 1489 1488 1487 1486 1485 1484 1483 1482 1481 1480
1479 1475 1472 1471 1470 1470 1470 1471 1472 1475 1477 1479 1482 1484 1486 1488 1489 1491 1492 1493 1494 1494 1494 1494 1494 1494 1494 1493 1493 1492 1491 1490 1489 1488 1487 1486 1485 1484 1483 1482 1481 1480 1479 1478
1476 1472 1472 1471 1471 1471 1471 1472 1474 1476 1478 1480 1482 1484 1486 1488 1489 1490 1491 1492 1493 1493 1494 1494 1493 1493 1493 1492 1492 1491 1490 1489 1488 1487 1485 1484 1483 1482 1481 1481 1479 1478 1477 1476
1469 1469 1470 1470 1471 1472 1472 1473 1475 1477 1479 1481 1483 1484 1486 1487 1489 1490 1491 1492 1492 1493 1493 1493 1492 1492 1492 1491 1491 1489 1488 1487 1486 1485 1483 1482 1481 1480 1478 1478 1477 1476 1475 1474
1468 1469 1470 1470 1471 1472 1474 1475 1477 1478 1480 1482 1483 1485 1486 1487 1489 1490 1491 1491 1492 1492 1492 1492 1491 1491 1491 1490 1489 1488 1487 1486 1485 1483 1482 1481 1479 1478 1477 1475 1474 1473 1472 1471
1467 1468 1469 1470 1471 1473 1475 1476 1478 1479 1481 1482 1484 1485 1486 1487 1488 1489 1490 1491 1491 1491 1491 1491 1490 1490 1489 1488 1487 1486 1485 1484 1483 1481 1480 1479 1477 1476 1475 1474 1472 1471 1470 1469
1467 1467 1469 1470 1471 1473 1475 1476 1478 1479 1481 1483 1484 1485 1486 1487 1488 1489 1490 1490 1490 1489 1490 1489 1489 1488 1488 1487 1485 1484 1483 1482 1481 1479 1478 1477 1475 1474 1473 1472 1470 1469 1468 1467
1466 1467 1468 1470 1471 1473 1475 1476 1478 1479 1481 1482 1484 1485 1486 1487 1488 1488 1489 1489 1489 1489 1489 1488 1488 1487 1486 1485 1484 1482 1481 1480 1479 1477 1476 1475 1473 1472 1471 1470 1468 1467 1466 1465
1464 1465 1467 1469 1471 1472 1474 1476 1478 1479 1481 1482 1483 1484 1485 1486 1486 1487 1487 1487 1488 1488 1487 1487 1486 1485 1484 1484 1482 1481 1480 1479 1477 1476 1475 1473 1472 1470 1469 1468 1466 1465 1464 1463
1464 1465 1467 1469 1471 1472 1474 1475 1477 1479 1481 1482 1482 1483 1484 1485 1485 1486 1486 1486 1486 1485 1486 1485 1484 1484 1483 1482 1481 1479 1478 1477 1476 1475 1473 1471 1470 1468 1467 1466 1465 1463 1462 1461
1463 1465 1467 1469 1471 1472 1473 1475 1477 1478 1479 1480 1481 1482 1483 1483 1484 1484 1484 1484 1484 1484 1484 1484 1483 1482 1481 1480 1479 1478 1477 1476 1474 1473 1471 1470 1468 1467 1465 1464 1463 1461 1460 1459
1463 1465 1467 1468 1470 1472 1473 1474 1475 1477 1478 1479 1479 1480 1481 1482 1483 1483 1482 1482 1483 1483 1483 1482 1481 1480 1479 1479 1478 1477 1475 1474 1473 1471 1470 1468 1467 1465 1464 1462 1461 1459 1458 1457
1463 1465 1466 1468 1469 1471 1472 1473 1474 1475 1476 1477 1478 1479 1479 1480 1481 1481 1481 1481 1481 1481 1481 1480 1479 1479 1478 1477 1476 1475 1474 1473 1471 1470 1468 1467 1466 1464 1463 1461 1459 1458 1457 1455
1463 1465 1466 1467 1468 1470 1471 1472 1473 1474 1475 1476 1476 1477 1478 1478 1479 1479 1479 1480 1480 1479 1479 1478 1478 1477 1477 1476 1475 1474 1473 1471 1470 1469 1467 1466 1465 1463 1462 1460 1458 1457 1455 1454
1463 1464 1465 1467 1468 1469 1470 1472 1473 1473 1474 1475 1476 1477 1477 1477 1478 1478 1478 1478 1478 1478 1477 1477 1476 1476 1475 1474 1473 1472 1471 1470 1469 1467 1466 1465 1464 1462 1461 1459 1457 1456 1455 1453
1463 1464 1465 1467 1468 1469 1471 1472 1472 1473 1474 1474 1475 1476 1476 1476 1476 1476 1477 1477 1476 1476 1476 1475 1475 1474 1473 1472 1471 1470 1469 1468 1467 1466 1465 1464 1463 1461 1460 1458 1457 1455 1453 1452
1463 1464 1466 1467 1468 1469 1470 1471 1472 1472 1473 1473 1474 1474 1475 1475 1475 1475 1475 1475 1475 1474 1474 1474 1473 1473 1472 1471 1470 1469 1468 1467 1466 1465 1464 1462 1461 1460 1459 1457 1455 1454 1452 1450
1464 1465 1466 1467 1468 1469 1470 1470 1471 1471 1472 1472 1472 1473 1473 1473 1474 1474 1474 1474 1473 1473 1473 1472 1472 1471 1470 1469 1468 1467 1466 1465 1464 1463 1462 1461 1460 1458 1457 1456 1454 1452 1451 1449